Location: Bavegemberg
(50.9500°N, 3.8833°E)
Time: 11:37:28
(UTC+00:00)

Cosmos 1356 Rocket - Pass Details

Date: 23 May 2024
Orbit: 530 x 579 km, 81.2° (Epoch: 14 June)

Event Time Altitude Azimuth Distance (km) Brightness Sun altitude
Exits shadow 01:22:42 24° 232° (SW) 1,174 4.5 -15.0°
Maximum altitude 01:24:42 42° 289° (WNW) 811 4.1 -14.9°
Drops below altitude 10° 01:28:38 10° 1° (N) 1,875 7.1 -14.6°
Sets 01:30:57 0° 8° (N) 2,785 8.4 -14.4°
